RH
42 17 6 4 13 5 23 25 23 22 15 8 8 10 15 25 23 36 41 31 18 10 6 5 5 5 4 4 4 5 5 6 6 7 8 12 15 21 32 51 55 53 55 57 59 60 57 50 39
24 5 3 12 8 12 24 24 22 18 12 8 9 10 10 14 13 13 19 9 8 6 5 5 5 4 4 4 4 4 5 5 6 6 7 8 10 11 14 32 41 58 56 58 60 66 64 65 57
7 3 8 13 9 20 21 21 22 17 11 10 9 10 13 10 11 11 9 8 5 4 4 5 5 5 4 4 4 5 5 5 5 5 6 7 7 7 8 10 13 18 28 53 64 57 69 69 67
4 4 13 7 14 21 22 22 24 15 9 10 13 11 11 11 9 9 8 5 4 4 5 6 5 4 4 4 4 4 4 4 4 6 7 7 7 8 8 8 8 8 10 14 27 46 67 65 67
3 6 12 13 21 19 20 22 14 7 9 10 11 10 10 12 8 7 5 4 4 5 7 6 3 3 3 3 3 4 4 5 7 7 8 8 9 8 8 9 9 9 9 9 9 12 29 49 64
3 7 8 19 23 22 20 12 9 7 8 11 9 8 9 8 6 4 4 4 5 7 6 4 3 3 4 4 5 5 7 8 9 10 10 10 9 8 8 8 8 8 7 6 6 6 7 14 47
4 8 8 14 20 20 19 11 8 6 6 9 10 6 5 5 4 4 4 6 8 7 4 4 4 4 5 6 7 8 10 12 14 13 11 9 8 8 9 9 8 6 6 6 7 7 6 6 13
5 6 13 22 20 20 16 11 8 6 6 10 10 5 4 4 4 5 7 8 7 4 4 4 6 6 7 8 10 14 16 18 15 12 10 9 9 10 9 7 8 9 9 11 13 13 14 14 12
6 6 11 17 20 14 10 10 11 8 7 7 6 4 3 4 5 7 7 7 5 5 6 6 7 8 9 13 19 20 19 17 13 11 10 10 10 8 8 10 9 9 9 11 13 17 20 21 23
6 7 7 9 10 12 11 8 8 5 4 3 3 3 4 6 7 8 9 7 6 6 7 7 8 10 16 22 22 21 18 15 12 12 11 11 9 9 11 10 9 8 9 12 14 18 19 22 24
7 8 8 8 11 13 12 8 4 3 2 2 3 5 8 8 10 11 9 8 8 8 8 9 12 18 23 24 22 20 18 18 15 12 12 12 10 12 14 15 12 11 13 23 26 26 33 31 32
10 9 8 10 12 13 10 8 4 2 3 4 6 7 8 12 13 20 20 15 10 10 10 14 20 25 25 22 21 20 20 16 13 12 13 13 12 14 15 13 14 17 20 30 36 42 38 35 42
10 8 8 8 9 8 7 4 2 3 3 5 6 7 10 14 21 29 29 22 17 13 15 21 26 26 23 22 20 21 19 15 14 15 15 14 14 14 13 16 19 18 23 28 43 51 45 40 56
9 8 7 8 8 5 2 2 3 4 7 7 8 9 14 17 22 30 31 29 20 16 20 26 28 25 22 20 22 23 20 17 16 17 16 16 17 17 18 17 20 22 24 27 36 53 50 49 41
9 7 6 6 3 2 3 3 6 6 8 10 14 15 19 21 26 31 27 28 19 19 23 28 27 23 20 23 27 26 23 20 17 18 17 17 19 20 21 21 18 19 24 30 36 45 52 54 45
7 5 3 3 2 3 4 6 8 9 14 18 20 25 26 27 31 28 20 24 19 19 27 28 26 21 18 23 29 30 28 23 21 20 20 20 20 21 24 24 24 22 16 21 33 39 45 49 49
3 5 4 8 10 12 8 8 12 13 16 20 21 25 30 29 24 17 22 20 18 23 27 27 24 19 21 24 26 26 26 27 28 28 28 27 26 25 23 25 26 26 26 21 18 22 30 39 48
4 4 8 15 13 12 11 10 11 14 18 24 27 28 22 13 16 21 21 19 19 24 27 26 24 17 17 18 19 21 21 22 23 23 22 22 24 28 29 26 24 25 30 29 26 24 23 20 29
17 20 18 18 18 15 14 19 25 26 25 23 19 16 15 15 16 22 20 19 21 26 27 27 23 16 16 18 20 22 23 23 22 23 22 21 20 22 29 33 33 24 22 29 32 28 26 30 21
11 19 20 18 18 20 27 25 18 13 11 12 15 18 21 18 23 22 19 20 24 25 26 28 21 18 18 20 23 25 27 26 25 22 20 21 23 25 30 39 45 44 33 23 22 29 31 38 34
12 11 11 16 29 32 25 11 8 8 12 17 21 22 19 20 23 20 19 19 21 25 28 29 23 22 23 25 26 29 28 27 25 23 20 20 23 29 36 44 52 57 55 51 46 35 27 29 35
13 19 26 29 30 17 16 14 12 12 15 20 22 23 23 24 22 20 19 20 23 26 28 32 29 29 31 32 34 34 34 32 28 24 22 25 31 39 47 54 55 58 57 54 52 50 47 42 36
27 32 27 19 16 18 16 26 17 18 17 21 26 29 23 22 21 20 20 21 24 27 30 34 36 36 38 40 43 42 40 38 34 27 28 33 42 51 56 58 59 59 59 60 60 61 60 57 51
24 22 21 22 32 52 22 26 23 21 20 29 32 30 28 23 21 21 22 23 26 28 31 36 40 42 44 46 47 46 44 38 31 30 34 42 51 60 61 63 64 65 66 66 65 65 65 65 64
19 24 34 56 70 59 43 41 26 28 25 32 35 36 34 31 28 25 26 27 29 30 33 40 46 49 50 50 50 46 38 32 35 38 38 43 53 62 70 73 74 75 75 75 74 73 72 70 68
24 26 23 41 75 73 47 41 29 24 23 27 35 36 37 33 31 34 32 31 32 34 40 46 49 51 53 53 46 34 33 42 42 38 40 49 57 66 71 75 74 75 77 78 79 80 79 75 72
29 30 27 35 52 54 32 33 28 23 24 28 33 32 31 31 34 36 35 35 37 43 47 50 53 56 53 41 32 33 37 34 33 35 35 42 59 71 78 82 82 81 81 86 87 84 76 68 60
33 29 40 38 60 63 49 40 25 27 28 32 35 34 36 37 38 38 39 42 45 47 49 53 56 53 50 34 27 17 13 22 35 39 41 46 48 55 64 76 81 86 90 91 93 87 64 56 52
32 38 38 39 38 72 73 36 32 34 36 42 41 40 40 38 37 40 44 48 52 56 61 60 57 51 40 35 23 16 23 38 49 54 60 62 54 53 56 58 58 69 84 94 96 95 85 76 68
32 35 36 36 44 58 51 40 28 31 41 41 40 41 42 45 48 50 53 58 62 63 62 59 48 46 33 23 18 15 13 16 22 28 38 36 38 37 40 51 62 71 84 83 81 74 62 52 38
Wind_Speed
8 9 8 5 5 4 9 9 8 7 6 7 6 8 11 11 8 4 6 6 9 8 7 5 7 7 8 8 8 8 9 9 9 10 12 13 13 14 14 13 14 15 15 16 16 16 15 13 14
9 8 7 5 6 8 7 8 8 7 7 6 5 5 7 7 5 5 8 8 8 9 10 8 7 8 9 9 8 8 9 10 10 11 12 13 14 15 17 16 15 14 17 17 17 17 18 17 15
8 7 6 6 8 7 9 10 6 5 5 5 6 5 6 3 3 3 6 8 10 10 10 10 10 12 11 9 9 10 10 11 12 13 14 15 16 17 18 19 20 20 21 18 17 19 19 19 19
8 7 8 7 8 7 7 9 7 5 7 7 7 4 5 3 4 4 6 8 11 11 12 11 11 12 11 11 11 12 13 13 14 15 16 17 18 19 21 22 23 24 25 25 26 22 20 22 23
8 9 10 10 9 9 7 7 7 7 8 7 7 7 6 5 6 6 6 10 10 12 13 11 10 10 11 11 12 13 13 13 14 16 18 19 20 22 23 24 25 26 27 29 29 29 29 29 25
11 13 11 14 11 8 6 7 9 9 9 6 8 8 6 8 7 7 6 8 12 14 12 11 11 10 11 11 11 11 12 13 15 16 18 20 21 22 22 23 24 26 27 28 30 32 33 33 34
14 14 11 13 12 11 8 8 10 8 10 7 8 6 4 6 7 7 9 11 11 12 12 11 11 10 9 10 10 10 11 14 17 18 19 20 20 21 21 22 23 24 25 26 27 29 32 34 37
16 15 14 12 12 11 10 9 8 10 11 10 8 3 3 6 8 9 10 10 9 11 11 11 10 9 8 8 10 11 13 16 18 18 19 20 20 20 20 19 18 18 21 22 23 23 25 26 31
16 15 16 13 13 11 9 9 9 11 12 11 10 9 9 9 10 10 8 8 9 10 10 11 10 8 9 10 11 13 15 17 18 18 17 18 18 18 16 15 16 18 21 22 23 22 23 26 28
18 18 14 16 14 10 8 10 10 10 10 10 9 10 10 10 9 8 8 8 10 10 10 10 10 10 9 11 13 15 15 15 16 16 14 14 14 14 14 15 18 20 20 21 21 25 25 26 29
19 17 15 14 13 11 11 11 10 11 11 10 10 9 11 9 7 7 7 9 11 10 9 9 9 10 10 12 15 14 13 13 14 15 13 12 10 9 11 13 15 17 17 18 21 21 23 26 26
17 16 14 14 13 13 13 12 12 12 12 11 11 11 9 9 8 7 9 10 10 10 9 9 9 10 13 14 15 14 12 12 12 13 15 13 10 9 10 12 13 14 14 16 19 19 22 28 28
18 15 15 15 15 14 13 13 12 13 11 12 11 11 9 9 8 9 10 10 10 10 8 8 8 11 14 15 15 14 12 11 12 12 14 14 13 11 10 10 12 14 13 16 17 18 20 24 27
14 17 16 15 14 14 14 13 11 13 9 10 11 11 9 9 10 11 12 12 11 10 9 8 9 12 15 15 14 12 11 11 11 12 13 14 14 14 13 13 13 13 14 15 17 17 18 20 25
16 12 15 15 14 14 13 14 12 12 11 9 10 10 11 12 13 14 14 12 11 10 9 8 10 12 13 12 11 11 11 12 13 13 14 15 15 16 16 15 14 14 15 14 16 17 18 19 22
15 14 12 12 13 13 13 8 7 9 9 8 10 11 13 14 16 16 14 12 11 10 8 9 11 12 12 11 10 11 12 13 13 14 15 16 16 16 17 18 16 13 15 16 15 17 17 16 15
13 8 12 9 10 10 10 7 7 10 10 10 13 14 14 15 16 16 12 12 10 8 8 10 11 12 11 10 10 10 11 13 14 15 16 17 18 17 17 18 18 16 13 15 15 16 16 14 13
12 13 10 9 7 9 10 9 10 13 14 14 15 15 18 17 15 13 12 11 10 8 9 10 11 12 10 8 8 10 12 15 17 18 20 21 21 21 20 21 22 20 18 16 17 18 18 18 13
8 10 9 9 9 11 11 9 12 16 16 16 17 19 19 18 13 10 12 11 9 8 9 10 11 10 8 7 9 12 16 19 21 23 23 24 24 22 22 22 22 22 20 19 17 18 19 19 17
13 12 13 12 13 11 13 13 14 19 19 19 19 18 18 15 10 11 12 10 10 10 12 11 10 9 9 10 11 13 17 20 23 25 26 26 25 24 23 22 22 22 21 21 19 18 18 20 20
12 13 14 13 9 12 16 18 16 18 18 17 16 16 13 11 10 11 12 12 12 12 12 12 12 11 13 15 16 19 23 26 29 30 29 27 26 25 23 23 22 21 20 20 20 19 18 18 20
12 11 11 11 9 6 6 5 9 14 17 16 12 10 10 11 12 13 14 13 13 14 14 14 14 14 16 18 21 24 27 31 34 35 30 25 24 23 23 22 23 23 21 20 20 19 18 17 17
10 10 9 9 10 11 15 8 8 14 17 12 10 9 10 12 14 14 14 15 15 15 15 16 17 19 20 20 23 27 31 35 38 36 28 23 22 23 24 24 24 24 24 23 22 21 20 19 18
9 9 8 9 8 3 10 11 6 12 8 11 10 8 9 12 14 15 16 17 17 17 18 19 21 22 23 25 27 30 35 40 39 30 24 22 23 25 26 27 28 28 28 27 27 26 26 25 23
13 9 2 2 1 5 5 8 15 11 13 10 8 8 9 10 13 16 18 19 20 19 20 22 23 24 26 29 32 36 41 39 30 25 24 24 25 27 30 32 33 33 34 34 34 33 32 31 30
14 12 5 6 3 3 8 9 7 11 13 15 12 11 12 11 12 16 20 21 20 21 22 24 25 27 30 33 38 41 34 28 28 29 28 28 29 31 32 34 36 37 38 38 37 36 35 34 33
12 12 11 3 2 2 7 11 14 17 16 15 14 12 11 12 15 17 19 21 22 22 23 26 28 30 36 40 38 33 33 36 36 33 32 32 33 34 36 37 38 38 39 39 39 38 37 36 35
15 11 6 8 3 4 6 9 14 9 18 16 10 9 11 13 16 19 21 20 20 23 27 29 33 39 43 38 35 37 38 37 36 35 34 35 37 39 42 42 42 42 41 41 41 40 38 40 39
20 20 13 8 5 4 1 4 8 13 14 10 8 10 13 18 21 20 20 22 24 26 30 36 42 44 38 37 40 41 39 39 39 39 40 42 43 44 45 47 47 46 44 42 44 45 45 45 45
18 19 20 11 7 8 5 10 13 14 12 12 14 15 16 19 22 25 26 28 29 32 38 43 40 38 41 43 43 42 44 44 45 45 47 49 51 52 49 50 51 51 51 50 50 51 50 50 50
Wind_Direction
281 285 276 237 202 196 155 167 185 198 203 206 185 184 207 210 207 215 256 255 286 312 338 327 308 306 301 297 295 293 291 288 287 287 284 284 283 283 282 283 286 292 292 295 298 300 301 299 298
278 275 255 196 210 177 163 178 196 192 199 211 207 209 200 213 220 243 260 289 292 306 326 337 320 311 304 296 293 292 293 294 295 290 286 284 283 284 283 282 279 282 282 286 288 290 293 290 290
271 254 222 192 207 175 172 185 203 211 225 242 253 241 205 198 205 231 264 290 299 314 318 319 312 306 299 294 296 298 297 296 298 298 298 297 296 293 290 288 284 280 275 272 275 281 282 283 282
254 232 204 213 188 167 180 187 202 225 224 223 239 239 260 251 202 219 260 281 296 302 307 310 306 298 294 295 297 296 297 297 296 295 297 297 295 294 292 291 290 288 284 279 271 264 269 273 276
235 213 200 193 183 183 180 199 212 235 244 246 246 248 268 250 241 236 262 284 288 294 299 301 298 294 297 298 295 291 292 294 296 298 299 296 296 294 294 292 289 287 285 283 280 276 264 261 264
219 206 200 187 182 187 212 227 243 250 257 249 251 265 252 251 249 260 261 275 287 295 296 296 296 292 289 287 284 290 295 300 298 300 299 297 296 296 294 293 292 290 288 285 283 279 273 265 256
215 209 204 199 203 209 208 230 252 263 265 261 265 264 245 236 260 256 284 288 288 286 286 288 288 289 281 277 282 292 301 303 303 305 301 301 302 302 300 297 296 296 295 292 287 284 281 274 263
211 206 197 198 201 212 223 238 238 252 257 259 260 241 214 254 264 277 287 284 278 276 280 282 280 279 281 286 289 308 311 310 309 306 306 308 308 304 303 304 304 307 305 303 302 299 290 283 274
203 202 205 210 215 230 245 247 250 260 254 246 243 255 267 270 277 285 282 280 278 277 281 286 287 283 285 295 315 319 319 317 309 307 313 311 310 307 306 309 315 320 323 317 314 310 305 298 284
201 209 212 222 231 243 255 256 266 248 241 242 250 270 276 273 275 281 280 284 283 286 288 286 289 294 301 315 320 322 322 315 303 307 311 315 321 317 313 315 330 333 326 321 310 307 300 303 289
205 215 219 229 236 242 252 260 251 243 253 265 266 263 262 268 265 274 280 283 285 286 284 283 287 296 309 316 318 319 315 309 308 314 323 325 329 319 312 322 329 327 322 321 314 314 318 318 309
210 218 224 233 240 244 250 254 243 247 255 264 265 259 258 261 261 276 282 278 279 281 276 276 284 296 307 315 316 316 319 320 319 329 332 331 333 324 317 329 327 331 317 319 319 318 330 334 330
214 221 228 233 240 248 248 237 241 257 265 270 266 265 256 241 259 295 292 286 282 274 266 270 284 301 311 316 318 321 327 326 327 336 335 332 331 330 334 340 333 335 322 320 324 324 337 344 339
220 229 231 233 238 240 239 244 252 265 265 264 269 267 262 252 268 292 299 290 277 263 258 270 292 310 314 319 320 321 326 325 331 335 329 330 333 333 337 341 336 329 328 326 325 332 332 345 350
223 229 233 233 230 233 244 255 258 261 265 252 250 250 257 260 272 285 291 275 258 249 258 279 305 312 315 316 316 323 327 329 335 332 328 330 336 333 332 339 338 327 320 323 321 326 332 341 356
221 229 227 230 230 238 242 252 250 252 258 247 239 255 261 269 282 286 283 263 246 254 271 294 308 311 313 316 323 332 333 338 339 336 331 331 330 329 324 325 328 326 317 313 309 317 324 334 341
209 218 221 234 232 238 241 249 256 256 254 251 259 270 269 272 276 280 260 244 242 256 278 299 307 312 317 325 331 334 337 337 338 334 329 326 323 321 316 311 309 309 304 308 314 307 306 310 320
220 215 224 225 232 245 254 260 259 259 265 268 269 273 279 283 281 265 239 235 240 253 279 294 300 308 312 321 331 336 337 335 331 324 322 319 317 317 315 311 308 308 305 302 305 309 309 307 305
210 210 221 231 241 265 268 257 262 266 267 264 267 277 285 291 279 246 229 230 236 249 268 280 291 299 302 319 329 339 344 341 334 327 322 318 315 312 309 308 306 307 305 298 291 290 298 301 302
225 228 234 244 251 263 270 270 257 264 267 268 274 282 290 277 257 226 223 223 235 254 271 276 289 286 287 306 317 323 327 329 328 324 319 314 311 308 305 303 304 304 304 303 299 291 285 293 295
231 233 235 243 254 270 280 282 264 259 261 260 268 274 266 260 241 225 220 230 244 260 266 270 277 282 292 294 298 312 320 323 326 327 322 314 308 305 302 302 301 302 302 303 302 300 295 289 298
226 229 233 244 256 250 258 286 264 259 263 261 263 257 248 243 224 221 229 239 250 260 265 272 275 279 285 292 302 308 314 321 325 325 319 309 304 302 300 299 298 298 298 298 298 299 297 294 292
222 223 234 246 256 266 259 242 240 243 250 248 244 249 240 231 222 226 234 245 254 261 263 268 272 275 281 291 299 305 310 318 322 321 314 307 303 300 298 295 293 291 291 290 290 290 291 291 287
219 218 237 256 257 256 235 222 246 235 249 231 240 254 249 234 231 237 244 251 256 259 262 266 272 277 284 290 294 300 310 316 316 312 304 300 296 292 289 286 285 285 284 284 283 283 284 282 281
212 203 214 323 294 219 193 213 235 234 247 248 252 258 240 234 241 247 251 254 258 262 267 271 275 281 286 288 295 306 311 311 306 301 296 291 287 284 282 280 279 280 281 282 283 283 282 280 280
210 208 212 209 201 243 203 232 236 236 241 239 241 228 230 239 254 253 252 256 260 264 268 274 280 282 285 294 302 306 307 304 301 297 293 290 286 285 281 278 278 278 278 279 279 280 280 279 278
207 211 228 226 263 302 232 250 253 256 248 240 243 247 244 258 267 266 262 262 263 269 276 280 281 286 296 303 305 305 303 301 298 293 292 290 288 286 284 282 280 280 279 279 278 276 276 275 275
213 210 196 200 148 245 266 261 244 262 248 247 250 241 251 260 260 259 264 270 275 281 282 281 285 294 302 302 300 301 299 295 292 289 288 288 289 288 286 285 284 283 281 278 275 273 275 277 277
223 220 217 209 210 176 246 257 252 251 249 243 229 229 239 250 261 270 277 285 286 285 288 295 300 300 297 294 296 296 292 289 287 286 286 287 288 287 286 286 286 285 281 277 275 275 277 280 279
228 231 234 224 215 210 236 256 256 255 246 252 262 254 265 277 284 287 287 288 293 297 299 298 297 296 298 298 297 296 295 293 290 286 285 286 286 284 282 282 282 282 280 279 279 278 278 280 279